Location: Olmeneta
(45.2333°N, 10.0167°E)
Time: 17:12:56
(UTC+00:00)

ARGOS - Pass Details

Date: 03 March 2021
Orbit: 819 x 835 km, 98.4° (Epoch: 11 April)

Event Time Altitude Azimuth Distance (km) Brightness Sun altitude
Rises 17:48:42 0° 152° (SSE) 3,367 6.1 -7.6°
Reaches altitude 10° 17:51:05 10° 148° (SSE) 2,439 5.3 -8.0°
Maximum altitude 17:56:22 57° 71° (ENE) 981 3.3 -9.0°
Drops below altitude 10° 18:01:41 10° 354° (N) 2,458 5.7 -9.9°
Sets 18:04:05 0° 350° (N) 3,396 6.5 -10.3°
